Regional Weather Roundup
Issued by NWS

Home | Current Version | Previous Version | Graphics & Text | Print | Product List | Glossary On
Versions: 1 2 3 4 5 6 7 8 9 10 11 12 13 14 15 16 17 18 19 20 21 22 23 24 25 26 27 28 29 30 31 32 33 34 35 36 37 38 39 40 41 42 43 44 45 46 47 48 49 50
000
ASUS43 KIND 011459
RWRIN

WEATHER ROUNDUP FOR INDIANA
NATIONAL WEATHER SERVICE INDIANAPOLIS IN
1100 AM EDT WED APR 01 2015

NOTE: "FAIR" INDICATES FEW OR NO CLOUDS BELOW 12,000 FEET WITH NO
SIGNIFICANT WEATHER AND/OR OBSTRUCTIONS TO VISIBILITY.

* - STATION DOES NOT REPORT WEATHER SUCH AS PRECIPITATION OR FOG.

+ - STATION NOT QUALITY CONTROLLED BY THE NATIONAL WEATHER SERVICE.
    USE DATA WITH CAUTION...ESPECIALLY DEWPOINT AND RELATIVE
    HUMIDITY OBSERVATIONS.

INZ001>003-010>013-019-020-011600-
NORTHWEST INDIANA

CITY           SKY/WX    TMP DP  RH WIND       PRES   REMARKS

$$

LMZ046-743>745-011600-
SOUTHERN LAKE MICHIGAN

STATION/POSITION TIME  TEMP WIND        PRES
                       AIR  DIR/SP/G
                 (UTC) (F)  (DEG/KT/KT) (MB)
BURNS HARBOR     1400   46  270/  2/  5 1019.3R
MICHIGAN CITY    1400   47     CALM       N/A

$$

INZ004-005-014>016-021>024-011600-
NORTH CENTRAL INDIANA

CITY           SKY/WX    TMP DP  RH WIND       PRES   REMARKS
ELKHART        SUNNY     50  32  50 SW7       30.12R
GOSHEN         SUNNY     52  37  56 SW12      30.11R
SOUTH BEND     SUNNY     51  34  52 SW7       30.12R

$$

INZ006>009-017-018-025>027-011600-
NORTHEAST INDIANA

CITY           SKY/WX    TMP DP  RH WIND       PRES   REMARKS
ANGOLA *+      SUNNY     52  39  62 VRB6      30.11R
FORT WAYNE     SUNNY     51  38  60 W9        30.13R

$$

INZ028-029-035-036-043>045-051>053-011600-
WEST CENTRAL INDIANA

CITY           SKY/WX    TMP DP  RH WIND       PRES   REMARKS
CRAWFORDSVL +  SUNNY     55  31  39 S9        30.11S
GREENCASTLE +  SUNNY     54  32  43 S8        30.12R
LAFAYETTE      SUNNY     56  36  47 S7        30.11R
TERRE HAUTE    SUNNY     56  39  53 S7        30.12R

$$

INZ030>032-037>040-046>048-054>057-064-065-011600-
CENTRAL INDIANA

CITY           SKY/WX    TMP DP  RH WIND       PRES   REMARKS
ANDERSON       SUNNY     50  36  57 SW12G17   30.15R
COLUMBUS       SUNNY     52  36  54 S12       30.15R
GREENWOOD *+   SUNNY     54  36  50 S8        30.15R
INDIANAPOLIS   MOSUNNY   54  36  50 S8        30.12R
-EAGLE CREEK   SUNNY     53  37  54 S7        30.13R
MT COMFORT *+  SUNNY     52  30  43 S12       30.14R
SHELBYVILLE    SUNNY     52  39  61 S15       30.15R

$$

INZ033-034-041-042-049-050-058-059-011600-
EAST CENTRAL INDIANA

CITY           SKY/WX    TMP DP  RH WIND       PRES   REMARKS
MUNCIE         SUNNY     53  37  54 SW8       30.13R

$$

INZ060-061-067>069-081>083-085>088-011600-
SOUTHWEST INDIANA

CITY           SKY/WX    TMP DP  RH WIND       PRES   REMARKS
EVANSVILLE     SUNNY     58  37  45 S12       30.12R
HUNTINGBURG *+ SUNNY     57  37  47 SE9       30.13R

$$

INZ062-063-066-070>080-084-089>092-011600-
SOUTH CENTRAL AND SOUTHEAST INDIANA

CITY           SKY/WX    TMP DP  RH WIND       PRES   REMARKS
BLOOMINGTON    SUNNY     54  37  52 S8        30.12S
MADISON *+     SUNNY     52  34  50 S9        30.17S
SEYMOUR +      SUNNY     55  37  50 SE7       30.14S

$$




USA.gov is the U.S. government's official web portal to all federal, state and local government web resources and services.